Date String (YYYY-MM-DD hh:mm:ss) UTC,Instrument flags,absolute air pressure of the measurement (hPa),sample flow rate (lpm),inlet stack bypass flow (lpm),air temperature of the measurement (°C),ambient temperature measured by the external sensor (°C),aerosol sample conditioner tube jacket temperature (°C),OPC LED temperature (°C),internal box temperature (°C),relative humidity of the measurement (%),span deviation,mass concentration of particles derived from Lorenz-Mie calculation of OPC scattering (μg/m³),mass concentration of particles derived from Lorenz-Mie calculation of OPC scattering (μg/m³),mass concentration of particles derived from Lorenz-Mie calculation of OPC scattering (μg/m³)
DateTimeUTC,F1_M11,P_M11,Q1_M11,Q2_M11,T1_M11,T2_M11,T3_M11,T4_M11,T5_M11,U1_M11,ZSPAN_M11,X2_M11,X0_M11,X1_M11
2024-06-10 01:00:00,SystemResetWarning,0831.3,4.98,000.00,029.9,028.1,000.0,038.2,031.2,041.6,-002.0,0012.45,0018.42,0011.50
2024-06-10 01:01:00,SystemResetWarning,0831.3,5.03,000.00,029.6,026.7,000.0,038.2,030.5,042.3,-001.7,0012.46,0018.85,0011.53
2024-06-10 01:02:00,SystemResetWarning,0831.2,4.99,000.00,029.4,026.6,000.0,038.1,030.3,042.9,-001.9,0012.48,0020.29,0011.58
2024-06-10 01:03:00,SystemResetWarning,0831.2,5.00,000.00,029.3,026.9,000.0,038.0,030.5,042.7,-001.9,0012.46,0020.07,0011.61
2024-06-10 01:04:00,SystemResetWarning,0831.3,5.01,000.00,029.3,027.3,000.0,037.9,030.7,042.6,-001.9,0012.51,0019.54,0011.62
2024-06-10 01:05:00,SystemResetWarning,0831.2,5.00,000.00,029.4,027.7,000.0,037.9,030.9,042.5,-001.3,0012.50,0019.77,0011.63
2024-06-10 01:06:00,SystemResetWarning,0831.2,5.00,000.00,029.4,028.0,000.0,037.9,031.1,042.3,-001.0,0012.45,0020.11,0011.59
2024-06-10 01:07:00,SystemResetWarning,0831.2,5.00,000.00,029.5,028.3,000.0,037.8,031.2,042.1,-001.2,0012.39,0020.29,0011.52
2024-06-10 01:08:00,SystemResetWarning,0831.2,5.00,000.00,029.5,028.5,000.0,037.8,031.3,041.6,-001.0,0012.33,0019.72,0011.45
2024-06-10 01:09:00,SystemResetWarning,0831.2,5.00,000.00,029.6,028.7,000.0,037.8,031.4,041.6,-001.0,0012.28,0019.80,0011.39
2024-06-10 01:10:00,SystemResetWarning,0831.1,5.01,000.00,029.6,028.9,000.0,037.9,031.4,041.0,-000.8,0012.18,0019.47,0011.31
2024-06-10 01:11:00,SystemResetWarning,0831.1,5.00,000.00,029.7,029.0,000.0,037.9,031.5,041.0,-001.1,0012.07,0019.30,0011.21
2024-06-10 01:12:00,SystemResetWarning,0831.1,4.99,000.00,029.7,029.2,000.0,037.9,031.6,040.9,-000.9,0011.97,0018.45,0011.12
2024-06-10 01:13:00,SystemResetWarning,0831.1,5.00,000.00,029.8,029.3,000.0,037.9,031.7,040.2,-000.9,0011.84,0017.18,0010.97
2024-06-10 01:14:00,SystemResetWarning,0831.1,5.00,000.00,029.9,029.3,000.0,038.0,031.7,040.1,-000.7,0011.73,0017.14,0010.83
2024-06-10 01:15:00,SystemResetWarning,0831.1,5.01,000.00,029.9,029.4,000.0,038.0,031.8,040.3,-000.3,0011.59,0017.03,0010.67
2024-06-10 01:16:00,SystemResetWarning,0831.2,5.00,000.00,030.0,029.5,000.0,038.0,031.8,040.5,-001.0,0011.47,0016.82,0010.56
2024-06-10 01:17:00,SystemResetWarning,0831.2,5.01,000.00,030.0,029.6,000.0,038.1,031.9,040.0,-001.5,0011.44,0016.46,0010.46
2024-06-10 01:18:00,SystemResetWarning,0831.2,5.00,000.00,030.1,029.6,000.0,038.1,031.9,039.8,-001.5,0011.37,0016.76,0010.35
2024-06-10 01:19:00,SystemResetWarning,0831.3,4.99,000.00,030.1,029.5,000.0,038.2,031.8,039.7,-001.5,0011.31,0017.18,0010.24
2024-06-10 01:20:00,SystemResetWarning,0831.2,4.99,000.00,029.9,027.6,000.0,038.2,030.9,040.3,-001.3,0011.20,0017.22,0010.13
2024-06-10 01:21:00,SystemResetWarning,0831.1,5.02,000.00,029.5,026.6,000.0,038.3,030.3,040.9,-001.0,0011.12,0017.08,0010.04
2024-06-10 01:22:00,SystemResetWarning,0831.2,4.99,000.00,029.3,026.6,000.0,038.2,030.3,041.4,-000.7,0011.05,0016.99,0009.94
2024-06-10 01:23:00,SystemResetWarning,0831.3,5.00,000.00,029.3,027.0,000.0,038.1,030.5,041.6,-000.5,0010.92,0017.46,0009.80
2024-06-10 01:24:00,SystemResetWarning,0831.3,4.99,000.00,029.3,027.4,000.0,038.0,030.8,041.4,-000.8,0010.82,0017.42,0009.70
2024-06-10 01:25:00,SystemResetWarning,0831.3,4.99,000.00,029.4,027.8,000.0,037.9,031.0,041.4,-001.0,0010.77,0018.58,0009.61
2024-06-10 01:26:00,SystemResetWarning,0831.3,5.01,000.00,029.4,028.1,000.0,037.9,031.1,041.0,-001.4,0010.69,0019.04,0009.51
2024-06-10 01:27:00,SystemResetWarning,0831.3,5.01,000.00,029.5,028.4,000.0,037.9,031.2,040.7,-001.4,0010.63,0020.63,0009.39
2024-06-10 01:28:00,SystemResetWarning,0831.2,4.99,000.00,029.5,028.6,000.0,037.9,031.3,040.6,-000.1,0010.52,0020.75,0009.27
2024-06-10 01:29:00,SystemResetWarning,0831.2,4.99,000.00,029.6,028.8,000.0,037.9,031.4,040.5,0000.7,0010.42,0019.86,0009.20
2024-06-10 01:30:00,SystemResetWarning,0831.2,5.00,000.00,029.7,029.0,000.0,037.9,031.5,040.4,0000.6,0010.30,0019.41,0009.13
2024-06-10 01:31:00,SystemResetWarning,0831.2,5.01,000.00,029.7,029.1,000.0,038.0,031.5,040.2,0000.1,0010.22,0019.05,0009.07
2024-06-10 01:32:00,SystemResetWarning,0831.2,5.01,000.00,029.8,029.2,000.0,038.0,031.6,040.2,-000.3,0010.17,0019.07,0009.02
2024-06-10 01:33:00,SystemResetWarning,0831.2,5.00,000.00,029.8,029.3,000.0,038.0,031.7,040.2,-000.5,0010.14,0019.54,0008.99
2024-06-10 01:34:00,SystemResetWarning,0831.2,5.00,000.00,029.9,029.4,000.0,038.0,031.8,040.0,-000.4,0010.11,0020.03,0008.96
2024-06-10 01:35:00,SystemResetWarning,0831.2,4.99,000.00,030.0,029.5,000.0,038.1,031.8,039.9,-000.5,0010.04,0019.70,0008.92
2024-06-10 01:36:00,SystemResetWarning,0831.2,5.00,000.00,030.0,029.6,000.0,038.1,031.9,039.5,-000.7,0009.94,0018.21,0008.89
2024-06-10 01:37:00,SystemResetWarning,0831.2,5.01,000.00,030.1,029.6,000.0,038.1,031.9,039.4,-000.6,0009.89,0017.66,0008.84
2024-06-10 01:38:00,SystemResetWarning,0831.2,5.00,000.00,030.1,029.7,000.0,038.2,032.0,039.4,-000.3,0009.81,0016.06,0008.79
2024-06-10 01:39:00,SystemResetWarning,0831.2,5.00,000.00,030.1,029.1,000.0,038.2,031.7,039.5,-000.8,0009.71,0015.71,0008.72
2024-06-10 01:40:00,SystemResetWarning,0831.1,5.00,000.00,029.8,027.2,000.0,038.3,030.7,040.1,-001.3,0009.66,0016.52,0008.65
2024-06-10 01:41:00,SystemResetWarning,0831.2,5.02,000.00,029.5,026.6,000.0,038.3,030.3,040.8,-001.3,0009.61,0016.51,0008.58
2024-06-10 01:42:00,SystemResetWarning,0831.2,4.99,000.00,029.3,026.8,000.0,038.2,030.3,041.1,-000.6,0009.57,0016.78,0008.51
2024-06-10 01:43:00,SystemResetWarning,0831.2,5.00,000.00,029.3,027.2,000.0,038.1,030.6,041.2,0000.5,0009.50,0018.12,0008.43
2024-06-10 01:44:00,SystemResetWarning,0831.2,5.00,000.00,029.4,027.6,000.0,038.0,030.8,041.1,0000.9,0009.43,0017.94,0008.34
2024-06-10 01:45:00,SystemResetWarning,0831.2,4.99,000.00,029.4,027.9,000.0,038.0,031.0,041.0,0000.9,0009.34,0017.30,0008.26
2024-06-10 01:46:00,SystemResetWarning,0831.3,5.00,000.00,029.5,028.2,000.0,037.9,031.1,040.9,0001.3,0009.33,0017.56,0008.17
2024-06-10 01:47:00,SystemResetWarning,0831.3,5.00,000.00,029.5,028.5,000.0,037.9,031.2,040.6,0002.0,0009.29,0017.86,0008.09
2024-06-10 01:48:00,SystemResetWarning,0831.3,5.00,000.00,029.6,028.7,000.0,037.9,031.3,040.6,0001.8,0009.19,0018.88,0008.03
2024-06-10 01:49:00,SystemResetWarning,0831.3,5.00,000.00,029.6,028.8,000.0,037.9,031.4,040.4,0001.8,0009.15,0018.92,0007.97
2024-06-10 01:50:00,SystemResetWarning,0831.3,5.00,000.00,029.7,029.0,000.0,037.9,031.5,040.3,0002.3,0009.11,0019.49,0007.94
2024-06-10 01:51:00,SystemResetWarning,0831.3,5.00,000.00,029.7,029.1,000.0,038.0,031.6,040.2,0002.5,0009.06,0018.72,0007.90
2024-06-10 01:52:00,SystemResetWarning,0831.4,5.00,000.00,029.8,029.2,000.0,038.0,031.7,040.0,0002.5,0009.02,0018.33,0007.88
2024-06-10 01:53:00,SystemResetWarning,0831.4,5.00,000.00,029.9,029.3,000.0,038.0,031.7,039.8,0002.1,0009.01,0018.37,0007.87
2024-06-10 01:54:00,SystemResetWarning,0831.4,5.00,000.00,029.9,029.4,000.0,038.0,031.8,039.5,0002.1,0009.06,0017.38,0007.90
2024-06-10 01:55:00,SystemResetWarning,0831.5,5.00,000.00,030.0,029.5,000.0,038.1,031.8,039.6,0002.2,0009.08,0017.33,0007.94
2024-06-10 01:56:00,SystemResetWarning,0831.4,5.00,000.00,030.0,029.6,000.0,038.1,031.9,039.5,0002.3,0009.09,0016.94,0007.98
2024-06-10 01:57:00,SystemResetWarning,0831.5,5.00,000.00,030.1,029.6,000.0,038.2,031.9,039.3,0002.5,0009.16,0017.02,0008.02
2024-06-10 01:58:00,SystemResetWarning,0831.4,5.00,000.00,030.1,029.4,000.0,038.2,031.8,039.0,0001.9,0009.15,0016.94,0008.05
2024-06-10 01:59:00,SystemResetWarning,0831.4,5.00,000.00,029.8,027.3,000.0,038.3,030.8,039.6,0002.0,0009.24,0016.15,0008.10
